Weather History for Hurlburt Field, FL

Change the Weather History Date:

Tuesday, May 14, 2013

  Actual Average Record
Temperature  
Mean Temperature 63 °F -  
Max Temperature 77 °F 81 °F 93 °F (1998)
Min Temperature 50 °F 63 °F 50 °F (2013)
Degree Days  
Heating Degree Days 2    
Growing Degree Days 13 (Base 50)    
Moisture  
Dew Point 57 °F    
Average Humidity 70    
Maximum Humidity 95    
Minimum Humidity 56    
Precipitation  
Precipitation 0.00 in - - ()
Sea Level Pressure  
Sea Level Pressure 30.25 in    
Wind  
Wind Speed 6 mph (SE)    
Max Wind Speed 15 mph    
Max Gust Speed -    
Visibility 10 miles    
Events Rain    
Averages and records for this station are not official NWS values.
T = Trace of Precipitation, MM = Missing Value Source: NWS Daily Summary

Daily Weather History Graph

Daily Weather History Graph

Search for Another Location

Airport:

Trip Planner

Search our weather history database for the weather conditions in past years. The results will help you decide how hot, cold, wet, or windy it might be!

Date:

Astronomy

May. 14, 2013 Rise Set
Actual Time 5:52 AM CDT 7:33 PM CDT
Civil Twilight 5:26 AM CDT 7:59 PM CDT
Nautical Twilight 4:55 AM CDT 8:31 PM CDT
Astronomical Twilight 4:22 AM CDT 9:04 PM CDT
Moon 9:31 AM CDT (5/14) 11:22 PM CDT (5/14)
Length of Visible Light 14h 33m
Length of Day
13h 40m
Waxing Crescent, 19% of the Moon is Illuminated
May 14
Waxing Crescent
May 17
First Quarter
May 24
Full
May 31
Last Quarter
Jun 8
New

Hourly Weather History & Observations

Time (CDT) Temp. Dew Point Humidity Pressure Visibility Wind Dir Wind Speed Gust Speed Precip Events Conditions
12:58 AM 53.8 °F 50.0 °F 87% 30.20 in 10.0 mi North 4.6 mph - N/A   Clear
1:58 AM 53.1 °F 50.2 °F 90% 30.20 in 10.0 mi North 5.8 mph - N/A   Clear
2:58 AM 52.3 °F 49.6 °F 91% 30.21 in 10.0 mi North 5.8 mph - N/A   Clear
3:58 AM 51.6 °F 49.8 °F 94% 30.22 in 10.0 mi North 5.8 mph - N/A   Clear
4:58 AM 51.4 °F 49.5 °F 93% 30.23 in 10.0 mi North 5.8 mph - N/A   Clear
5:58 AM 50.7 °F 48.6 °F 92% 30.24 in 10.0 mi NNE 4.6 mph - N/A   Clear
6:38 AM 53.6 °F 51.8 °F 94% 30.25 in 10.0 mi NNE 2.3 mph - N/A Rain Light Rain
6:47 AM 55.4 °F 51.8 °F 88% 30.25 in 10.0 mi NNE 3.5 mph - N/A   Clear
6:58 AM 56.1 °F 52.5 °F 88% 30.27 in 10.0 mi North 3.5 mph - 0.00 in   Clear
7:58 AM 63.7 °F 55.0 °F 73% 30.28 in 10.0 mi ENE 4.6 mph - N/A   Clear
8:34 AM 69.8 °F 55.4 °F 60% 30.27 in 10.0 mi Variable 2.3 mph - N/A   Light Drizzle
8:54 AM 71.6 °F 57.2 °F 60% 30.28 in 10.0 mi SE 3.5 mph - N/A   Clear
8:56 AM 71.6 °F 57.2 °F 60% 30.28 in 10.0 mi SE 3.5 mph - N/A   Light Drizzle
8:57 AM 71.6 °F 57.2 °F 60% 30.28 in 10.0 mi ESE 4.6 mph - N/A   Clear
8:58 AM 71.6 °F 57.2 °F 60% 30.29 in 10.0 mi ESE 4.6 mph - 0.00 in   Clear
8:59 AM 71.6 °F 57.2 °F 60% 30.28 in 10.0 mi East 3.5 mph - N/A   Light Drizzle
9:16 AM 73.4 °F 57.2 °F 57% 30.28 in 10.0 mi South 5.8 mph - N/A   Clear
9:42 AM 73.4 °F 57.2 °F 57% 30.28 in 10.0 mi South 6.9 mph - N/A Rain Light Rain
9:51 AM 73.4 °F 57.2 °F 57% 30.28 in 10.0 mi SSE 5.8 mph - N/A   Clear
9:58 AM 73.2 °F 59.0 °F 61% 30.29 in 10.0 mi Variable 6.9 mph - 0.00 in   Clear
10:45 AM 75.2 °F 59.0 °F 57% 30.29 in 10.0 mi SSE 8.1 mph - N/A Rain Light Rain
10:47 AM 75.2 °F 59.0 °F 57% 30.29 in 10.0 mi SSE 5.8 mph - N/A   Clear
10:49 AM 75.2 °F 60.8 °F 61% 30.29 in 10.0 mi SSE 9.2 mph - N/A   Light Drizzle
10:58 AM 75.2 °F 59.0 °F 57% 30.30 in 10.0 mi SSE 8.1 mph - 0.00 in   Light Drizzle
11:00 AM 75.2 °F 59.0 °F 57% 30.29 in 10.0 mi SE 8.1 mph - N/A   Clear
11:58 AM 75.2 °F 58.6 °F 56% 30.29 in 10.0 mi SSE 11.5 mph - 0.00 in   Clear
12:58 PM 76.1 °F 61.3 °F 60% 30.27 in 10.0 mi SSE 15.0 mph - N/A   Clear
1:58 PM 76.6 °F 60.3 °F 57% 30.25 in 10.0 mi South 13.8 mph - N/A   Clear
2:58 PM 76.6 °F 61.0 °F 58% 30.23 in 10.0 mi South 13.8 mph - N/A   Clear
3:58 PM 75.9 °F 60.4 °F 59% 30.21 in 10.0 mi South 10.4 mph - N/A   Clear
4:58 PM 75.2 °F 60.8 °F 61% 30.19 in 10.0 mi SSW 9.2 mph - N/A   Clear
5:58 PM 74.3 °F 61.3 °F 64% 30.19 in 10.0 mi SSW 9.2 mph - N/A   Clear
6:58 PM 72.7 °F 60.6 °F 66% 30.18 in 10.0 mi SSW 6.9 mph - N/A   Clear
7:58 PM 70.9 °F 61.0 °F 71% 30.19 in 10.0 mi SSW 4.6 mph - N/A   Clear
8:58 PM 70.7 °F 61.3 °F 72% 30.20 in 10.0 mi SW 3.5 mph - N/A   Clear
9:58 PM 70.2 °F 62.1 °F 75% 30.20 in 10.0 mi Calm Calm - N/A   Clear
10:58 PM 69.4 °F 62.4 °F 78% 30.20 in 10.0 mi WNW 4.6 mph - N/A   Clear
11:58 PM 60.8 °F 59.4 °F 95% 30.19 in 10.0 mi North 3.5 mph - N/A   Clear